108  
ASUS46 KSEW 261510  
RWRWA  
 
WASHINGTON REGIONAL WEATHER ROUNDUP  
NATIONAL WEATHER SERVICE SEATTLE WA  
800 AM PDT WED APR 26 2017  
 
NOTE:"FAIR" INDICATES FEW OR NO CLOUDS BELOW 12,000 FEET WITH NO  
SIGNIFICANT WEATHER AND/OR S TO VISIBILITY
.  
 
WAZ507-509-555>559-261600-  
SEATTLE, TACOMA, EVERETT, AND VICINITY  
 
CITY SKY/WX TMP DP RH WIND PRES REMARKS
 
EVERETT CLOUDY 48 44 86 S13 29.78R  
BOEING FIELD CLOUDY 50 47 89 S10G18 29.80R  
RENTON CLOUDY 50 46 86 S9G17 29.80R  
SEATAC AIRPORT CLOUDY 48 45 89 S15 29.80R  
JBLM-MCCHORD CLOUDY 48 48 100 S12 29.82S  
PUYALLUP N/A 48 46 93 SW3 29.83R  
BREMERTON NOT AVBL  
JBLM-FT LEWIS PTSUNNY 47 45 91 W5 29.86R  
TACOMA NARROWS CLOUDY 46 46 100 S10 29.82R  

 
 
WAZ001-503-506-510-514-515-261600-  
NORTH INTERIOR  
 
CITY SKY/WX TMP DP RH WIND PRES REMARKS
 
BELLINGHAM MOSUNNY 51 46 83 S7G17 29.74R  
FRIDAY HARBOR PTSUNNY 50 44 80 W9 29.76S  
EASTSOUND MOSUNNY 50 43 76 W7 29.74R  
PORT ANGELES CLOUDY 47 45 93 W5 29.78R  
EDIZ HOOK CLOUDY 48 44 85 W9 29.78R  
PORT TOWNSEND CLOUDY 48 46 93 CALM 29.78S FOG  
NAS WHIDBEY PTSUNNY 50 44 80 W8 29.81R  
ARLINGTON CLOUDY 48 39 71 SW5 29.80R  
BURLINGTON CLOUDY 50 48 93 SE3 29.77S  

 
 
WAZ020-022-039-040-504-511-512-261600-  
SOUTHWEST INTERIOR  
 
CITY SKY/WX TMP DP RH WIND PRES REMARKS
 
SHELTON LGT RAIN 48 45 89 SW12 29.79R  
OLYMPIA CLOUDY 48 47 96 SW10 29.83R  
CHEHALIS PTSUNNY 48 48 100 SW6 29.84S  
KELSO CLOUDY 49 47 93 SE3 29.87F  
VANCOUVER LGT RAIN 50 48 93 E5 29.88R  
SCAPPOOSE, OR LGT RAIN 48 45 89 S5 29.87R  
PORTLAND, OR LGT RAIN 48 45 89 S7 29.89R  

 
 
WAZ021-516-517-261600-  
WASHINGTON COAST  
 
CITY SKY/WX TMP DP RH WIND PRES REMARKS
 
FORKS LGT RAIN 46 45 96 W6 29.81R FOG  
HOQUIAM CLOUDY 48 47 96 W12 29.84R  
ASTORIA, OR CLOUDY 49 45 86 W10 29.87S  

 
 
WAZ019-023-024-040-567>569-261600-  
CASCADE MOUNTAINS AND COLUMBIA GORGE  
 
CITY SKY/WX TMP DP RH WIND PRES REMARKS
 
STAMPEDE PASS LGT SNOW 34 34 100 W8 29.72S FOG  
TROUTDALE, OR LGT RAIN 49 46 90 S9 29.89R  
THE DALLES, OR CLOUDY 51 43 74 W14 29.82R  

 
 
WAZ026-027-041>044-520-521-261600-  
EAST SLOPES  
 
CITY SKY/WX TMP DP RH WIND PRES REMARKS
 
OMAK CLOUDY 49 39 68 S10 29.67S  
WENATCHEE CLOUDY 46 38 73 NW8 29.73R  
ELLENSBURG CLOUDY 46 38 73 W7 29.76R  
YAKIMA CLOUDY 45 40 82 CALM 29.78R  
SUNNYSIDE ARPT CLOUDY 45 42 89 CALM 29.78R  

 
 
WAZ028-034-035-261600-  
COLUMBIA BASIN  
 
CITY SKY/WX TMP DP RH WIND PRES REMARKS
 
EPHRATA CLOUDY 45 38 76 SW8 29.71R  
MOSES LAKE CLOUDY 49 38 65 SW10 29.72R  
PASCO CLOUDY 53 43 68 SW13 29.77R  
HERMISTON, OR LGT RAIN 51 47 86 SW13 29.78R  

 
 
WAZ036>038-261600-  
NORTHEAST WASHINGTON  
 
CITY SKY/WX TMP DP RH WIND PRES REMARKS
 
SPOKANE GEIGER CLOUDY 45 41 86 SW12 29.70S  
SPOKANE FELTS CLOUDY 47 43 86 SW7 29.71F  
FAIRCHILD AFB CLOUDY 44 44 100 SW10 29.69S  
COEURDALENE,ID LGT RAIN 42 41 96 S8 29.71S  
DEER PARK LGT RAIN 43 41 93 S3 29.70F  

 
 
WAZ029>033-261600-  
SOUTHEAST WASHINGTON  
 
CITY SKY/WX TMP DP RH WIND PRES REMARKS
 
PULLMAN CLOUDY 45 41 86 W16 29.74F  
LEWISTON, ID CLOUDY 49 46 90 N6 29.74F  
WALLA WALLA CLOUDY 52 44 74 S14 29.77S  
PENDLETON, OR CLOUDY 49 45 86 S5 29.78S  

 
 
 
CLICK HERE TO GO TO PREVIOUS BULLETINS.

The Nexlab WA Page Main Text Page